• In Latvia
  • List of Countries
  • For 7 days
  • Water Temperature
  • Satellite Maps
  • Weather Map
  • Weather Widgets
  • user-avatar
    Login

    Hourly Weather Ali Bayramli

    Today, 4 December, Sunday

    Time Temperature Precipitation Wind Pressure Humidity
    00:00 +6°C° 0 mm 5 mps 764 mmHg 64%
    01:00 +6°C° 0 mm 5 mps 764 mmHg 61%
    02:00 +5°C° 0 mm 5 mps 765 mmHg 59%
    03:00 +4°C° 0 mm 6 mps 765 mmHg 56%
    04:00 +4°C° 0 mm 6 mps 765 mmHg 55%
    05:00 +3°C° 0 mm 5 mps 765 mmHg 54%
    06:00 +3°C° 0 mm 5 mps 766 mmHg 54%
    07:00 +5°C° 0 mm 5 mps 766 mmHg 51%
    08:00 +5°C° 0 mm 6 mps 766 mmHg 48%
    09:00 +5°C° 0 mm 6 mps 767 mmHg 44%
    10:00 +8°C° 0 mm 5 mps 766 mmHg 41%
    11:00 +9°C° 0 mm 5 mps 766 mmHg 39%
    12:00 +10°C° 0 mm 5 mps 766 mmHg 36%
    13:00 +10°C° 0 mm 5 mps 766 mmHg 37%
    14:00 +11°C° 0 mm 4 mps 765 mmHg 38%
    15:00 +11°C° 0 mm 4 mps 765 mmHg 39%
    16:00 +10°C° 0 mm 4 mps 765 mmHg 42%
    17:00 +8°C° 0 mm 4 mps 765 mmHg 46%
    18:00 +7°C° 0 mm 4 mps 765 mmHg 49%
    19:00 +6°C° 0 mm 4 mps 765 mmHg 50%
    20:00 +6°C° 0 mm 5 mps 765 mmHg 51%
    21:00 +5°C° 0 mm 5 mps 765 mmHg 52%
    22:00 +5°C° 0 mm 5 mps 766 mmHg 54%
    23:00 +5°C° 0 mm 5 mps 766 mmHg 55%

    Tomorrow, 5 December, Monday

    Time Temperature Precipitation Wind Pressure Humidity
    00:00 +4°C° 0 mm 4 mps 766 mmHg 57%
    01:00 +4°C° 0 mm 4 mps 766 mmHg 60%
    02:00 +4°C° 0 mm 3 mps 766 mmHg 63%
    03:00 +3°C° 0 mm 3 mps 767 mmHg 66%
    04:00 +3°C° 0 mm 3 mps 767 mmHg 68%
    05:00 +4°C° 0 mm 2 mps 767 mmHg 70%
    06:00 +4°C° 0 mm 2 mps 767 mmHg 72%
    07:00 +5°C° 0 mm 2 mps 768 mmHg 70%
    08:00 +6°C° 0 mm 2 mps 768 mmHg 67%
    09:00 +6°C° 0 mm 2 mps 768 mmHg 65%
    10:00 +7°C° 0 mm 3 mps 768 mmHg 64%
    11:00 +8°C° 0 mm 3 mps 767 mmHg 64%
    12:00 +9°C° 0 mm 3 mps 767 mmHg 64%
    13:00 +9°C° 0 mm 3 mps 767 mmHg 64%
    14:00 +8°C° 0 mm 3 mps 766 mmHg 64%
    15:00 +8°C° 0 mm 2 mps 766 mmHg 65%
    16:00 +8°C° 0 mm 2 mps 766 mmHg 68%
    17:00 +7°C° 0 mm 2 mps 766 mmHg 72%
    18:00 +7°C° 0 mm 1 mps 766 mmHg 75%
    19:00 +7°C° 0 mm 1 mps 766 mmHg 76%
    20:00 +7°C° 0 mm 1 mps 766 mmHg 78%
    21:00 +7°C° 0 mm 1 mps 766 mmHg 79%
    22:00 +6°C° 0 mm 2 mps 766 mmHg 80%
    23:00 +6°C° 0 mm 2 mps 766 mmHg 80%

    Day after tomorrow, 6 December, Tuesday

    Time Temperature Precipitation Wind Pressure Humidity
    00:00 +5°C° 0 mm 2 mps 766 mmHg 81%
    01:00 +4°C° 0.3 mm 3 mps 767 mmHg 82%
    02:00 +4°C° 0.3 mm 4 mps 767 mmHg 84%
    03:00 +4°C° 0.3 mm 4 mps 767 mmHg 85%
    04:00 +4°C° 0.8 mm 4 mps 768 mmHg 83%
    05:00 +3°C° 0.8 mm 5 mps 768 mmHg 82%
    06:00 +3°C° 0.8 mm 5 mps 768 mmHg 81%
    07:00 +3°C° 0.4 mm 5 mps 769 mmHg 77%
    08:00 +3°C° 0.4 mm 5 mps 769 mmHg 74%
    09:00 +3°C° 0.4 mm 5 mps 770 mmHg 70%
    10:00 +3°C° 0.2 mm 5 mps 770 mmHg 68%
    11:00 +3°C° 0.2 mm 5 mps 770 mmHg 65%
    12:00 +5°C° 0.2 mm 5 mps 770 mmHg 62%
    13:00 +5°C° 0.1 mm 4 mps 770 mmHg 62%
    14:00 +5°C° 0.1 mm 4 mps 770 mmHg 61%
    15:00 +5°C° 0.1 mm 3 mps 770 mmHg 61%
    16:00 +4°C° 0 mm 3 mps 770 mmHg 63%
    17:00 +3°C° 0 mm 3 mps 770 mmHg 65%
    18:00 +4°C° 0 mm 2 mps 770 mmHg 67%
    19:00 +3°C° 0 mm 2 mps 770 mmHg 67%
    20:00 +2°C° 0 mm 3 mps 770 mmHg 67%
    21:00 +1°C° 0 mm 3 mps 770 mmHg 66%
    22:00 +1°C° 0 mm 3 mps 769 mmHg 65%
    23:00 +1°C° 0 mm 3 mps 769 mmHg 64%

    7 December, Wednesday

    Time Temperature Precipitation Wind Pressure Humidity
    00:00 0°C° 0 mm 3 mps 768 mmHg 63%
    01:00 0°C° 0 mm 3 mps 768 mmHg 62%
    02:00 0°C° 0 mm 3 mps 767 mmHg 62%
    03:00 0°C° 0 mm 3 mps 767 mmHg 62%
    04:00 0°C° 0 mm 3 mps 766 mmHg 63%
    05:00 -1°C° 0 mm 4 mps 766 mmHg 63%
    06:00 -2°C° 0 mm 4 mps 766 mmHg 63%
    07:00 -1°C° 0 mm 4 mps 765 mmHg 61%
    08:00 0°C° 0 mm 5 mps 765 mmHg 58%
    09:00 +1°C° 0 mm 5 mps 765 mmHg 55%
    10:00 +2°C° 0 mm 5 mps 764 mmHg 51%
    11:00 +3°C° 0 mm 6 mps 764 mmHg 46%
    12:00 +4°C° 0 mm 6 mps 763 mmHg 42%
    13:00 +4°C° 0 mm 6 mps 762 mmHg 43%
    14:00 +5°C° 0 mm 5 mps 762 mmHg 44%
    15:00 +5°C° 0 mm 5 mps 762 mmHg 44%
    16:00 +3°C° 0 mm 5 mps 762 mmHg 47%
    17:00 +2°C° 0 mm 5 mps 762 mmHg 50%
    18:00 +1°C° 0 mm 5 mps 762 mmHg 53%
    19:00 +1°C° 0 mm 5 mps 762 mmHg 53%
    20:00 0°C° 0 mm 5 mps 762 mmHg 53%
    21:00 0°C° 0 mm 5 mps 762 mmHg 52%
    22:00 0°C° 0 mm 4 mps 762 mmHg 52%
    23:00 0°C° 0 mm 4 mps 762 mmHg 52%

    8 December, Thursday

    Time Temperature Precipitation Wind Pressure Humidity
    00:00 0°C° 0 mm 4 mps 763 mmHg 52%
    01:00 0°C° 0 mm 3 mps 763 mmHg 55%
    02:00 0°C° 0 mm 3 mps 763 mmHg 57%
    03:00 0°C° 0 mm 3 mps 764 mmHg 60%
    04:00 0°C° 0 mm 3 mps 764 mmHg 62%
    05:00 0°C° 0 mm 3 mps 765 mmHg 65%
    06:00 0°C° 0 mm 3 mps 766 mmHg 68%
    07:00 0°C° 0 mm 4 mps 767 mmHg 65%
    08:00 +1°C° 0 mm 5 mps 768 mmHg 62%
    09:00 +2°C° 0 mm 6 mps 769 mmHg 60%
    10:00 +2°C° 0 mm 6 mps 769 mmHg 59%
    11:00 +2°C° 0 mm 6 mps 769 mmHg 58%
    12:00 +2°C° 0 mm 7 mps 770 mmHg 57%
    13:00 +2°C° 0.1 mm 6 mps 770 mmHg 59%
    14:00 +1°C° 0.1 mm 6 mps 770 mmHg 61%
    15:00 +1°C° 0.1 mm 6 mps 770 mmHg 64%
    16:00 -1°C° 0 mm 6 mps 771 mmHg 67%
    17:00 -2°C° 0 mm 6 mps 771 mmHg 70%
    18:00 -3°C° 0 mm 6 mps 771 mmHg 72%
    19:00 -2°C° 0 mm 5 mps 771 mmHg 73%
    20:00 -2°C° 0 mm 4 mps 772 mmHg 73%
    21:00 -1°C° 0 mm 3 mps 772 mmHg 74%
    22:00 -1°C° 0 mm 3 mps 771 mmHg 74%
    23:00 -1°C° 0 mm 2 mps 771 mmHg 75%

    9 December, Friday

    Time Temperature Precipitation Wind Pressure Humidity
    00:00 -2°C° 0 mm 2 mps 771 mmHg 75%
    01:00 0°C° 0 mm 1 mps 771 mmHg 75%
    02:00 0°C° 0 mm 1 mps 771 mmHg 75%
    03:00 0°C° 0 mm 1 mps 770 mmHg 75%
    04:00 0°C° 0 mm 1 mps 770 mmHg 75%
    05:00 0°C° 0 mm 1 mps 770 mmHg 74%
    06:00 0°C° 0 mm 1 mps 770 mmHg 74%
    07:00 +1°C° 0 mm 1 mps 770 mmHg 71%
    08:00 +1°C° 0 mm 1 mps 771 mmHg 69%
    09:00 +1°C° 0 mm 2 mps 771 mmHg 66%
    10:00 +2°C° 0 mm 2 mps 770 mmHg 60%
    11:00 +1°C° 0 mm 3 mps 770 mmHg 53%
    12:00 +1°C° 0 mm 4 mps 769 mmHg 47%
    13:00 +2°C° 0 mm 3 mps 769 mmHg 47%
    14:00 +2°C° 0 mm 3 mps 768 mmHg 48%
    15:00 +2°C° 0 mm 3 mps 768 mmHg 48%
    16:00 +1°C° 0 mm 3 mps 768 mmHg 52%
    17:00 0°C° 0 mm 3 mps 768 mmHg 55%
    18:00 -1°C° 0 mm 2 mps 768 mmHg 59%
    19:00 -1°C° 0 mm 2 mps 768 mmHg 58%
    20:00 -1°C° 0 mm 2 mps 767 mmHg 58%
    21:00 -1°C° 0 mm 2 mps 767 mmHg 58%
    22:00 -1°C° 0 mm 2 mps 767 mmHg 58%
    23:00 -1°C° 0 mm 3 mps 766 mmHg 58%
    Show more